EW2868 Sai Kung current weather conditions

sailwx.info

Wind from 188 at 1 knots gusting 4

Air temperature 18.9° C
Dewpoint 13.3° C

Last reported at 2019-Jan-19 09:02 UTC.
Time now 2019-Jan-19 10:02 UTC

Location: N 22°21' E 114°14'.
View on Google Maps.

See reports from other nearby stations

  
Tides and Currents Weather Stations Pressure Air Temp Water Temp Dewpoint Dewpoint Depression Visibility Wind Speed Wind Dir Waves Ship Positions
date/time (UTC)wind fromknots sea level pressurealtimeterstation pressurevisibilityair tempwater tempwave heightnotes
2019-Jan-19 09:02 188 1 gusting 4 18.9
2019-Jan-19 08:52 202 0 gusting 3 18.9
2019-Jan-19 08:42 130 0 gusting 3 18.9
2019-Jan-19 08:32 240 1 gusting 3 18.9
2019-Jan-19 08:22 234 0 gusting 2 18.9
2019-Jan-19 08:12 239 2 gusting 4 19.4
2019-Jan-19 08:02 240 2 gusting 6 19.4
2019-Jan-19 07:52 208 3 gusting 6 19.4
2019-Jan-19 07:42 229 3 gusting 5 20.0
2019-Jan-19 07:32 231 4 gusting 4 20.0
2019-Jan-19 07:22 226 1 gusting 3 20.0
2019-Jan-19 07:12 205 2 gusting 4 20.0
2019-Jan-19 07:02 190 2 gusting 5 20.0
2019-Jan-19 06:52 201 0 gusting 6 20.0
2019-Jan-19 06:42 185 6 gusting 6 20.0
2019-Jan-19 06:32 223 3 gusting 6 20.6
2019-Jan-19 06:22 201 1 gusting 6 21.1
2019-Jan-19 06:12 217 21.1
2019-Jan-19 06:02 202 3 gusting 5 21.1
2019-Jan-19 05:52 218 3 gusting 4 21.7
2019-Jan-19 05:42 153 21.7
2019-Jan-19 05:32 217 0 gusting 3 21.7
2019-Jan-19 05:22 172 21.7
2019-Jan-19 05:12 238 2 gusting 4 21.7
2019-Jan-19 05:02 243 3 gusting 4 21.1
2019-Jan-19 04:52 198 0 gusting 4 21.1
2019-Jan-19 04:42 178 5 gusting 5 21.7
2019-Jan-19 04:32 089 21.7
2019-Jan-19 04:22 228 0 gusting 6 21.1
2019-Jan-19 04:12 184 3 gusting 6 21.7
2019-Jan-19 04:02 057 21.7
2019-Jan-19 03:52 097 2 gusting 4 21.1
2019-Jan-19 03:42 097 0 gusting 4 20.6
2019-Jan-19 03:32 061 0 gusting 4 20.6
2019-Jan-19 03:22 138 2 gusting 6 20.6
2019-Jan-19 03:12 132 2 gusting 4 20.6
2019-Jan-19 03:02 153 1 gusting 3 20.6
2019-Jan-19 02:52 122 0 gusting 4 21.1
2019-Jan-19 02:42 284 20.6
2019-Jan-19 02:32 052 1 gusting 4 20.0
2019-Jan-19 02:22 086 0 gusting 5 20.0
2019-Jan-19 02:12 112 2 gusting 6 20.0
2019-Jan-19 02:02 078 3 gusting 6 20.0
2019-Jan-19 01:52 085 2 gusting 3 20.0
2019-Jan-19 01:42 075 0 gusting 1 19.4
2019-Jan-19 01:32 057 0 gusting 1 18.9
2019-Jan-19 01:22 005 18.9
2019-Jan-19 01:12 005 0 gusting 1 18.9
2019-Jan-19 01:02 010 18.3
2019-Jan-19 00:52 011 18.3
2019-Jan-19 00:42 011 17.8
2019-Jan-19 00:32 011 1 gusting 1 17.8
2019-Jan-19 00:22 011 17.8
2019-Jan-19 00:12 011 17.2
2019-Jan-19 00:02 011 17.2
2019-Jan-18 23:52 011 16.7
2019-Jan-18 23:42 011 16.1
2019-Jan-18 23:32 011 16.1
2019-Jan-18 23:22 011 16.1
2019-Jan-18 23:12 011 16.7
2019-Jan-18 23:02 005 16.1
2019-Jan-18 22:52 005 16.1
2019-Jan-18 22:42 005 16.7
2019-Jan-18 22:32 005 16.1
2019-Jan-18 22:22 009 0 gusting 2 16.1
2019-Jan-18 22:12 355 16.1
2019-Jan-18 22:02 355 16.1
2019-Jan-18 21:52 355 15.6
2019-Jan-18 21:42 355 16.1
2019-Jan-18 21:32 355 15.6
2019-Jan-18 21:22 355 15.6
2019-Jan-18 21:12 355 15.6
2019-Jan-18 21:02 355 15.6
2019-Jan-18 20:52 355 15.6
2019-Jan-18 20:42 355 1 gusting 1 15.6
2019-Jan-18 20:32 355 16.1
2019-Jan-18 20:22 355 0 gusting 2 16.1
2019-Jan-18 20:12 034 16.1
2019-Jan-18 20:02 318 16.1
2019-Jan-18 19:52 318 16.1
2019-Jan-18 19:42 318 16.1
2019-Jan-18 19:32 318 16.1
2019-Jan-18 19:22 318 16.1
2019-Jan-18 19:12 318 16.1
2019-Jan-18 19:02 318 16.1
2019-Jan-18 18:52 318 16.1
2019-Jan-18 18:42 318 16.7
2019-Jan-18 18:32 318 16.7
2019-Jan-18 18:22 318 0 gusting 1 16.7
2019-Jan-18 18:12 318 16.1
2019-Jan-18 18:02 318 16.7
2019-Jan-18 17:52 318 0 gusting 1 16.1
2019-Jan-18 17:42 318 16.1
2019-Jan-18 17:32 318 1 gusting 1 16.1
2019-Jan-18 17:22 318 1 gusting 2 16.1
2019-Jan-18 17:12 318 15.6
2019-Jan-18 17:02 318 0 gusting 1 15.6
2019-Jan-18 16:52 318 15.6
2019-Jan-18 16:42 318 15.6
2019-Jan-18 16:32 318 15.6
2019-Jan-18 16:22 318 0 gusting 1 16.1
2019-Jan-18 16:12 318 0 gusting 1 16.1
2019-Jan-18 16:02 318 16.1
2019-Jan-18 15:52 318 16.1
2019-Jan-18 15:42 318 0 gusting 1 16.1
2019-Jan-18 15:32 318 16.7
2019-Jan-18 15:22 318 0 gusting 0 16.7
2019-Jan-18 15:12 318 16.7
2019-Jan-18 15:02 318 16.7
2019-Jan-18 14:52 318 16.7
2019-Jan-18 14:42 318 16.7
2019-Jan-18 14:32 318 0 gusting 2 16.1
2019-Jan-18 14:22 318 0 gusting 1 16.1
2019-Jan-18 14:12 318 0 gusting 1 16.1
2019-Jan-18 14:02 318 16.1
2019-Jan-18 13:52 019 0 gusting 1 16.7
2019-Jan-18 13:42 019 16.7
2019-Jan-18 13:32 019 0 gusting 1 16.7
2019-Jan-18 13:22 019 16.7
2019-Jan-18 13:12 019 16.7
2019-Jan-18 13:02 019 0 gusting 2 16.7
2019-Jan-18 12:52 323 16.7
2019-Jan-18 12:42 323 16.7
2019-Jan-18 12:32 323 16.7
2019-Jan-18 12:22 097 1 gusting 1 16.7
2019-Jan-18 12:12 098 16.7
2019-Jan-18 12:02 096 1 gusting 1 16.7
2019-Jan-18 11:52 078 16.7
2019-Jan-18 11:42 078 1 gusting 1 17.2
2019-Jan-18 11:32 078 17.2
2019-Jan-18 11:22 078 0 gusting 1 17.2
2019-Jan-18 11:12 078 1 gusting 1 16.7
2019-Jan-18 11:02 078 0 gusting 1 17.2
2019-Jan-18 10:52 078 17.2
2019-Jan-18 10:42 078 0 gusting 2 17.2
2019-Jan-18 10:32 079 0 gusting 3 17.2
2019-Jan-18 10:22 078 17.2
2019-Jan-18 10:12 078 0 gusting 5 17.2
2019-Jan-18 10:02 126 17.2
2019-Jan-18 09:52 038 17.8
2019-Jan-18 09:42 038 17.8
2019-Jan-18 09:32 038 0 gusting 1 17.8
2019-Jan-18 09:22 038 0 gusting 1 17.8
2019-Jan-18 09:12 038 17.8
2019-Jan-18 09:02 038 17.8
2019-Jan-18 08:52 038 1 gusting 2 17.8
2019-Jan-18 08:42 038 1 gusting 3 17.8
2019-Jan-18 08:32 076 1 gusting 3 17.8
2019-Jan-18 08:22 066 0 gusting 2 17.8
2019-Jan-18 08:12 053 2 gusting 6 17.8
2019-Jan-18 08:02 086 3 gusting 4 17.8
2019-Jan-18 07:52 076 2 gusting 4 17.2
2019-Jan-18 07:42 064 1 gusting 4 17.8
2019-Jan-18 07:31 069 17.8
2019-Jan-18 07:21 092 1 gusting 6 17.8
2019-Jan-18 07:12 019 2 gusting 7 17.2
2019-Jan-18 07:02 360 5 gusting 6 17.2
2019-Jan-18 06:51 351 6 gusting 6 17.2
2019-Jan-18 06:42 224 17.8
2019-Jan-18 06:31 230 3 gusting 3 17.2
2019-Jan-18 06:21 215 0 gusting 4 17.2
2019-Jan-18 06:11 212 0 gusting 4 17.8
2019-Jan-18 06:02 079 1 gusting 3 17.8
2019-Jan-18 05:51 084 0 gusting 6 17.8
2019-Jan-18 05:41 071 2 gusting 4 17.8
2019-Jan-18 05:31 142 17.8
2019-Jan-18 05:21 175 2 gusting 6 17.8
2019-Jan-18 05:11 113 1 gusting 7 17.8
2019-Jan-18 05:01 075 2 gusting 5 17.8
2019-Jan-18 04:51 119 6 gusting 6 17.8
2019-Jan-18 04:41 080 2 gusting 6 17.2
2019-Jan-18 04:31 068 1 gusting 2 17.8
2019-Jan-18 04:21 124 1 gusting 6 17.2
2019-Jan-18 04:11 110 17.2
2019-Jan-18 04:01 055 2 gusting 7 17.2
2019-Jan-18 03:51 132 1 gusting 3 17.2
2019-Jan-18 03:41 079 1 gusting 6 17.2
2019-Jan-18 03:32 163 3 gusting 5 17.2
2019-Jan-18 03:21 107 2 gusting 5 17.2
2019-Jan-18 03:11 128 0 gusting 6 17.2
2019-Jan-18 03:01 090 2 gusting 6 16.7
2019-Jan-18 02:51 106 1 gusting 6 16.7
2019-Jan-18 02:41 077 2 gusting 6 16.7
2019-Jan-18 02:31 080 2 gusting 5 16.7
2019-Jan-18 02:21 121 16.7
2019-Jan-18 02:11 092 6 gusting 8 16.7
2019-Jan-18 02:01 150 3 gusting 8 16.7
2019-Jan-18 01:51 051 2 gusting 7 16.7
2019-Jan-18 01:41 101 2 gusting 6 16.7
2019-Jan-18 01:31 049 2 gusting 5 16.1
2019-Jan-18 01:21 107 2 gusting 6 16.1
2019-Jan-18 01:11 088 2 gusting 6 16.1
2019-Jan-18 01:01 086 1 gusting 9 16.1
2019-Jan-18 00:51 092 3 gusting 10 16.1
2019-Jan-18 00:41 081 0 gusting 11 16.1
2019-Jan-18 00:31 057 5 gusting 9 16.1
2019-Jan-18 00:21 084 3 gusting 9 16.1
2019-Jan-18 00:11 063 6 gusting 9 16.1
2019-Jan-18 00:01 114 7 gusting 11 15.6
2019-Jan-17 23:51 065 6 gusting 10 15.6
2019-Jan-17 23:41 051 5 gusting 8 15.6
2019-Jan-17 23:31 123 1 gusting 5 15.6
2019-Jan-17 23:21 059 3 gusting 4 15.6
2019-Jan-17 23:11 067 3 gusting 8 15.6
2019-Jan-17 23:01 084 2 gusting 6 15.6
2019-Jan-17 22:51 059 2 gusting 7 15.6
2019-Jan-17 22:41 060 1 gusting 7 15.6
2019-Jan-17 22:31 049 3 gusting 4 15.6
2019-Jan-17 22:21 043 2 gusting 6 15.6
2019-Jan-17 22:11 077 1 gusting 5 15.6
2019-Jan-17 22:01 057 1 gusting 4 15.6
2019-Jan-17 21:51 055 4 gusting 6 15.6
2019-Jan-17 21:41 061 1 gusting 4 15.6
2019-Jan-17 21:31 034 1 gusting 4 15.6
2019-Jan-17 21:21 066 1 gusting 5 15.6
2019-Jan-17 21:11 076 0 gusting 2 15.6
2019-Jan-17 21:01 063 2 gusting 3 15.6
2019-Jan-17 20:51 077 0 gusting 1 15.6
2019-Jan-17 20:41 077 2 gusting 4 15.6
2019-Jan-17 20:31 078 0 gusting 2 15.6
2019-Jan-17 20:21 078 0 gusting 2 15.6
2019-Jan-17 20:11 078 0 gusting 3 15.6
2019-Jan-17 20:01 078 2 gusting 2 15.6
2019-Jan-17 19:51 078 1 gusting 3 15.6
2019-Jan-17 19:41 078 2 gusting 2 15.6
2019-Jan-17 19:31 078 15.6
2019-Jan-17 19:21 078 1 gusting 1 15.6
2019-Jan-17 19:11 355 1 gusting 2 15.6
2019-Jan-17 19:01 355 15.6
2019-Jan-17 18:51 040 15.6
2019-Jan-17 18:41 040 15.6
2019-Jan-17 18:31 039 15.6
2019-Jan-17 18:21 039 15.6
2019-Jan-17 18:11 039 15.6
2019-Jan-17 18:01 039 15.6
2019-Jan-17 17:51 039 15.6
2019-Jan-17 17:41 083 15.0
2019-Jan-17 17:31 166 15.0
2019-Jan-17 17:21 166 0 gusting 2 15.0
2019-Jan-17 17:11 294 15.6
2019-Jan-17 17:01 294 0 gusting 2 15.0
2019-Jan-17 16:51 294 0 gusting 2 15.0
2019-Jan-17 16:41 294 0 gusting 1 15.0
2019-Jan-17 16:31 294 0 gusting 1 14.4
2019-Jan-17 16:21 294 14.4
2019-Jan-17 16:11 294 14.4
2019-Jan-17 16:01 294 14.4
2019-Jan-17 15:51 294 14.4
2019-Jan-17 15:41 045 0 gusting 1 15.0
2019-Jan-17 15:31 045 15.0
2019-Jan-17 15:21 336 0 gusting 4 15.0
2019-Jan-17 15:11 009 2 gusting 7 15.0
2019-Jan-17 15:01 360 3 gusting 6 15.0
2019-Jan-17 14:51 047 0 gusting 8 14.4
2019-Jan-17 14:41 073 3 gusting 5 15.0
2019-Jan-17 14:31 015 3 gusting 7 15.0
2019-Jan-17 14:21 022 2 gusting 7 15.0
2019-Jan-17 14:11 017 2 gusting 7 15.0
2019-Jan-17 14:01 360 4 gusting 7 15.0
2019-Jan-17 13:51 355 3 gusting 5 14.4
2019-Jan-17 13:41 005 1 gusting 5 14.4
2019-Jan-17 13:31 328 1 gusting 3 13.9
2019-Jan-17 13:21 236 13.3
2019-Jan-17 13:11 236 13.9
2019-Jan-17 13:01 236 13.9
2019-Jan-17 12:51 194 0 gusting 0 13.9
2019-Jan-17 12:41 194 14.4
2019-Jan-17 12:31 194 0 gusting 3 15.0
2019-Jan-17 12:21 187 15.0
2019-Jan-17 12:11 205 5 gusting 5 15.6
2019-Jan-17 12:01 111 2 gusting 5 15.6
2019-Jan-17 11:51 061 15.6
2019-Jan-17 11:41 163 0 gusting 1 15.0
2019-Jan-17 11:31 157 0 gusting 1 14.4
2019-Jan-17 11:21 268 14.4
2019-Jan-17 11:11 268 14.4
2019-Jan-17 11:01 268 14.4
2019-Jan-17 10:51 267 15.0
2019-Jan-17 10:41 267 15.6
2019-Jan-17 10:31 265 15.6
2019-Jan-17 10:21 265 15.6
2019-Jan-17 10:11 265 1 gusting 2 16.1
2019-Jan-17 10:01 258 16.7